Change the Weather History Date:

Wednesday, April 10, 2013

  Actual Average Record
Temperature  
Mean Temperature 38 °F 44 °F  
Max Temperature 38 °F 54 °F 82 °F (2011)
Min Temperature 37 °F 34 °F 19 °F (1997)
Degree Days  
Heating Degree Days 27    
Month to date heating degree days 275  
Since 1 July heating degree days 5963  
Cooling Degree Days 0    
Month to date cooling degree days 0  
Year to date cooling degree days 0  
Moisture  
Dew Point 35 °F    
Average Humidity 91    
Maximum Humidity 100    
Minimum Humidity 82    
Precipitation  
Precipitation 0.47 in 0.09 in 0.47 in (2013)
Month to date precipitation 2.34 0.88  
Year to date precipitation 8.19 6.26  
Snow  
Snow 0.00 in - - ()
Month to date snowfall T  
Since 1 July snowfall 43.4  
Snow Depth 0.00 in    
Sea Level Pressure  
Sea Level Pressure 30.03 in    
Wind  
Wind Speed 17 mph (NE)    
Max Wind Speed 31 mph    
Max Gust Speed 36 mph    
Visibility 8 miles    
Events Rain    
T = Trace of Precipitation, MM = Missing Value Source: NWS Daily Summary

Daily Weather History Graph

Daily Weather History Graph

Search for Another Location

Airport or City:

Trip Planner

Search our weather history database for the weather conditions in past years. The results will help you decide how hot, cold, wet, or windy it might be!

Date:

Astronomy

Apr. 10, 2013 Rise Set
Actual Time 7:01 AM EDT 8:14 PM EDT
Civil Twilight 6:32 AM EDT 8:43 PM EDT
Nautical Twilight 5:57 AM EDT 9:18 PM EDT
Astronomical Twilight 5:19 AM EDT 9:56 PM EDT
Moon 6:56 AM EDT (4/10) 8:50 PM EDT (4/10)
Length of Visible Light 14h 11m
Length of Day
13h 12m
New Moon, 0% of the Moon is Illuminated
Apr 10
New Moon
Apr 18
First Quarter
Apr 25
Full
May 2
Last Quarter
May 9
New

Hourly Weather History & Observations

Time (EDT) Temp. Windchill Dew Point Humidity Pressure Visibility Wind Dir Wind Speed Gust Speed Precip Events Conditions
12:53 AM 37.9 °F 30.0 °F 35.1 °F 89% 30.06 in 10.0 mi NE 12.7 mph - N/A   Overcast
1:53 AM 37.9 °F 30.0 °F 35.1 °F 89% 30.06 in 8.0 mi NE 12.7 mph - N/A   Overcast
2:53 AM 37.9 °F 29.6 °F 35.1 °F 89% 30.02 in 10.0 mi ENE 13.8 mph - 0.03 in   Overcast
3:53 AM 37.9 °F 29.6 °F 35.1 °F 89% 30.02 in 7.0 mi ENE 13.8 mph - 0.00 in Rain Light Rain
4:53 AM 37.9 °F 29.6 °F 35.1 °F 89% 30.01 in 10.0 mi NE 13.8 mph - 0.01 in Rain Light Rain
5:53 AM 37.9 °F 28.9 °F 36.0 °F 93% 30.05 in 6.0 mi NNE 16.1 mph - 0.02 in Rain Light Rain
6:53 AM 37.9 °F 28.2 °F 37.9 °F 100% 30.03 in 5.0 mi ENE 18.4 mph - 0.02 in Rain Light Rain
7:37 AM 37.4 °F 28.5 °F - N/A% 30.07 in 1.5 mi NNE 15.0 mph - 0.08 in Rain Rain
7:53 AM 37.9 °F 27.6 °F - N/A% 30.03 in 3.0 mi ENE 20.7 mph 25.3 mph 0.14 in Rain Rain
8:53 AM 37.9 °F 28.5 °F - N/A% 30.01 in 10.0 mi NE 17.3 mph 24.2 mph 0.04 in Rain Light Rain
9:53 AM 37.9 °F 29.6 °F - N/A% 29.99 in 7.0 mi ENE 13.8 mph - 0.00 in Rain Light Rain
10:12 AM 37.4 °F 28.5 °F - N/A% 29.98 in 0.8 mi NE 15.0 mph 28.8 mph 0.06 in Rain Rain
10:21 AM 37.4 °F 27.5 °F - N/A% 30.01 in 2.0 mi NNE 18.4 mph 24.2 mph 0.08 in Rain Light Rain
10:53 AM 37.9 °F 28.5 °F - N/A% 30.01 in 2.0 mi NE 17.3 mph - 0.11 in Rain Light Rain
11:00 AM 37.4 °F 26.9 °F - N/A% 29.99 in 5.0 mi NE 20.7 mph 26.5 mph 0.00 in Rain Light Rain
11:53 AM 37.0 °F 28.9 °F - N/A% 30.07 in 3.0 mi NE 12.7 mph - 0.05 in Rain Rain
12:53 PM 37.0 °F 27.0 °F - N/A% 29.97 in 10.0 mi ENE 18.4 mph 27.6 mph 0.04 in Rain Light Rain
1:53 PM 37.0 °F 26.2 °F - N/A% 30.02 in 5.0 mi NNE 21.9 mph 27.6 mph 0.01 in Rain Light Rain
2:53 PM 37.0 °F 26.2 °F 36.0 °F 96% 30.04 in 10.0 mi NNE 21.9 mph 31.1 mph 0.00 in   Overcast
3:53 PM 37.9 °F 26.8 °F 37.0 °F 97% 30.01 in 10.0 mi NE 24.2 mph 28.8 mph N/A   Overcast
4:53 PM 37.0 °F 25.9 °F 36.0 °F 96% 30.04 in 10.0 mi NE 23.0 mph 26.5 mph N/A   Overcast
5:53 PM 37.0 °F 27.7 °F 36.0 °F 96% 30.08 in 10.0 mi NE 16.1 mph - N/A   Overcast
6:53 PM 37.0 °F 26.4 °F 35.1 °F 93% 30.04 in 10.0 mi NNE 20.7 mph - N/A   Overcast
7:29 PM 37.4 °F 25.6 °F 33.8 °F 87% 30.00 in 10.0 mi NE 26.5 mph 35.7 mph N/A   Mostly Cloudy
7:36 PM 37.4 °F 26.9 °F 33.8 °F 87% 30.02 in 10.0 mi NE 20.7 mph 33.4 mph N/A   Mostly Cloudy
7:53 PM 37.0 °F 26.2 °F 33.1 °F 86% 30.03 in 10.0 mi NE 21.9 mph 27.6 mph N/A   Overcast
8:53 PM 37.0 °F 26.7 °F 33.1 °F 86% 30.05 in 10.0 mi NE 19.6 mph 26.5 mph N/A   Overcast
9:53 PM 37.0 °F 27.7 °F 32.0 °F 82% 30.06 in 10.0 mi ENE 16.1 mph 25.3 mph 0.00 in   Overcast
10:53 PM 37.0 °F 28.9 °F 33.1 °F 86% 30.04 in 10.0 mi NE 12.7 mph - 0.00 in   Overcast
11:53 PM 37.0 °F 29.8 °F 34.0 °F 89% 30.06 in 10.0 mi NE 10.4 mph - N/A   Overcast